AirNav   Pilot Hours Calculator
 
 1022 users online  

FD77 Wimauma Air Park
Wimauma, Florida, USA

GOING TO WIMAUMA?


FAA INFORMATION EFFECTIVE 27 JANUARY 2022

Location

FAA Identifier: FD77
Lat/Long: 27-42-43.1110N 082-16-58.3270W
27-42.718517N 082-16.972117W
27.7119753,-82.2828686
(estimated)
Elevation: 100 ft. / 30 m (estimated)
Variation: 02W (1985)
From city: 1 mile E of WIMAUMA, FL
Time zone: UTC -5 (UTC -4 during Daylight Saving Time)
Zip code: 33598

Airport Operations

Airport use: Private use. Permission required prior to landing
Activation date: 07/1986
Control tower: no
ARTCC: MIAMI CENTER
FSS: SAINT PETERSBURG FLIGHT SERVICE STATION
Attendance: DAYLIGHT HOURS
Wind indicator: yes
Segmented circle: yes
Lights: ACTVT LIRL RY 09/27 - CTAF.

Airport Communications

UNICOM: 122.7
WX AWOS-3 at TPF (15 nm NW): 118.925 (813-251-6824)
WX AWOS-3 at PCM (18 nm N): 120.025 (813-764-8259)
WX AWOS-3 at VDF (18 nm N): 121.125 (813-630-0924)
WX ASOS at SPG (19 nm W): 118.875 (727-821-4334)

Nearby radio navigation aids

VOR radial/distance  VOR name  Freq  Var
LALr220/21.8LAKELAND VORTAC116.0001E
SRQr044/23.6SARASOTA VOR/DME117.0005W
PIEr124/24.3ST PETERSBURG VORTAC116.4005W

Airport Services

Fuel available: 100LL

Runway Information

Runway 9/27

Dimensions: 2700 x 100 ft. / 823 x 30 m
Surface: turf, in good condition
Runway edge lights: low intensity
RUNWAY 9  RUNWAY 27
Traffic pattern: leftleft
Displaced threshold: 650 ft.350 ft.

Airport Ownership and Management from official FAA records

Ownership: Privately-owned
Owner: WIMAUMA PROPERTY INVESTMENT LLC
1806 N FRANKLIN ST
TAMPA, FL 33602
Phone 813-740-0422
Manager: BASEM ALI
1806 N FRANKLIN ST
TAMPA, FL 33602
Phone 813-740-0422

Airport Operational Statistics

Aircraft based on the field: 38
Single engine airplanes: 37
Multi engine airplanes: 1
    

Additional Remarks

FOR CD CTC TAMPA APCH AT 813-878-2528

Instrument Procedures

There are no published instrument procedures at FD77.

Some nearby airports with instrument procedures:

KTPF - Peter O Knight Airport (15 nm NW)
KMCF - MacDill Air Force Base (15 nm NW)
KPCM - Plant City Airport (18 nm N)
KVDF - Tampa Executive Airport (18 nm N)
KSPG - Albert Whitted Airport (19 nm W)
 
Loc | Ops | Rwys | IFR | FBO | Links
Com | Nav | Svcs | Stats | Notes

Reliance Aviation
AirBoss

 
Area around FD77 (Wimauma Air Park)
 
Road maps at: MapQuest Bing Google
 
Aerial photo
WARNING: Photo may not be current or correct
Aerial photo of FD77 (Wimauma Air Park)
Do you have a better or more recent aerial photo of Wimauma Air Park that you would like to share? If so, please send us your photo.

 
Sectional chart

 
Airport distance calculator
Flying to Wimauma Air Park? Find the distance to fly.

From to FD77

Sunrise and sunset
Times for 29-Jan-2022
 Local
(UTC-5)
 Zulu
(UTC)
Morning civil twilight06:5411:54
Sunrise07:1812:18
Sunset18:0623:06
Evening civil twilight18:3123:31

Current date and time
Zulu (UTC)  29-Jan-2022 07:51:42
Local (UTC-5)  29-Jan-2022 02:51:42
 
METAR
KMCF 
15nm NW 
290656Z AUTO 33017G27KT 10SM BKN042 BKN050 11/03 A3005 RMK AO2 PK WND 34028/15 SLP179 T01090030 FZRANO VISNO RWY23 $
KTPF 
15nm NW 
290735Z AUTO 34008G22KT 10SM BKN100 OVC120 11/01 A3010 RMK AO2
KPCM 
18nm N 
290735Z AUTO 10SM BKN050 10/00 A3010 RMK AO2
KVDF 
19nm N 
290735Z AUTO 33011G23KT 10SM SCT050 10/01 A3010 RMK AO2
KSPG 
19nm W 
290653Z AUTO 33022G34KT 10SM BKN049 12/03 A3006 RMK AO2 PK WND 34034/0652 SLP179 T01220033
KTPA 
20nm NW 
290653Z 33019G31KT 10SM FEW043 BKN049 11/01 A3009 RMK AO2 PK WND 32032/0634 SLP189 T01110011 $
KLAL 
21nm NE 
290735Z AUTO 33015G27KT 10SM SCT043 BKN049 08/00 A3008 RMK AO2
KSRQ 
24nm SW 
290653Z AUTO 33019G33KT 10SM BKN044 12/03 A3006 RMK AO2 PK WND 32034/0637 SLP178 T01220028
KPIE 
25nm NW 
290653Z AUTO 33026G37KT 10SM OVC049 11/02 A3010 RMK AO2 PK WND 32040/0621 SLP191 T01060022
TAF
KMCF 
15nm NW 
290406Z 2904/3007 30015G25KT 9999 SCT020 BKN200 QNH3000INS BECMG 2912/2913 34015G25KT 9999 SKC QNH3016INS BECMG 3000/3001 35009KT 9999 SKC QNH3029INS TX15/2904Z TN06/3000Z
NOTAMs
Click for the latest NOTAMs
NOTAMs are issued by the DoD/FAA and will open in a separate window not controlled by AirNav.

 

 
 

Would you like to see your business listed on this page?

 If your business provides an interesting product or service to pilots, flight crews, aircraft, or users of the Wimauma Air Park, you should consider listing it here.  To start the listing process, click on the button below
 
Add a business
 

Other Pages about Wimauma Air Park

Update a link
 
Copyright © AirNav, LLC. All rights reserved. Privacy Policy  Contact